sat.trackr.live / text

‹ back to catalog

STARLINK-5010

NORAD 53930 · 2022-119AW

PAYLOAD ACTIVE UNKNOWN

§ Identity

Operator
Country
US
Launch date
2022-09-24
Launch site
AFETR
Launch vehicle
Mass (kg)
RCS (m²)

Purposes: comms

External: N2YO · Heavens-Above · Gunter

§ Orbital elements

Epoch: 2026-05-25T04:00:03.998880Z

Period
92.26 min
Inclination
53.2168°
Eccentricity
0.0001017
Mean motion
15.60834960 rev/d
Perigee alt
384.6 km
Apogee alt
385.9 km
Semi-major
6,763.4 km
B*
6.0795e-3
RAAN
306.5999°
Arg perigee
71.5402°
Mean anomaly
244.6138°
Rev number
568

§ Raw data

STARLINK-50101 53930U 22119AW  26145.16671295  .00553197  00000+0  60795-2 0  99982 53930  53.2168 306.5999 0001017  71.5402 244.6138 15.60834960  5685

JSON: /api/v1/satellites/53930 · /tle

For live sub-satellite position, see the globe view (requires WebGL).

§ Visibility from observer

Set your observer location to see the next 7 days of passes ≥ 10°. The values pass through the URL so the page stays shareable.

No JS? Fill the form by hand. The geolocation button needs JavaScript.